Regional Weather Roundup
Issued by NWS

Home | Current Version | Previous Version | Graphics & Text | Print | Product List | Glossary On
Versions: 1 2 3 4 5 6 7 8 9 10 11 12 13 14 15 16 17 18 19 20 21 22 23 24 25 26 27
000
ASUS45 KBOI 231610
RWRID
WEATHER ROUNDUP FOR IDAHO
NATIONAL WEATHER SERVICE BOISE ID
1000 AM MDT THU OCT 23 2014

NOTE: "FAIR" INDICATES FEW OR NO CLOUDS BELOW 12000 FEET
WITH NO SIGNIFICANT WEATHER AND/OR OBSTRUCTIONS TO VISIBILITY

IDZ012-014-231700-
SOUTHWEST IDAHO


CITY           SKY/WX    TMP DP  RH WIND       PRES   REMARKS
BOISE          LGT RAIN  54  46  74 SE9       30.06R
CALDWELL       CLOUDY    52  37  58 S15       30.05F
MOUNTAIN HOME  DRIZZLE   53  37  54 E10       30.06S
$$

IDZ016-017-231700-
SOUTHCENTRAL IDAHO


CITY           SKY/WX    TMP DP  RH WIND       PRES   REMARKS
BURLEY         CLOUDY    50  34  54 SW8       30.10R
JEROME         CLOUDY    49  31  49 NE6       30.11R
TWIN FALLS     CLOUDY    59  31  34 S12       30.10R
$$

IDZ019>023-231700-
SOUTHEAST IDAHO


CITY           SKY/WX    TMP DP  RH WIND       PRES   REMARKS
IDAHO FALLS    PTSUNNY   49  31  49 CALM      30.12R
POCATELLO      SUNNY     50  32  50 N9        30.11R
REXBURG        PTSUNNY   47  33  58 VRB3      30.12S
$$

IDZ006-010-011-018-031-032-231700-
CENTRAL IDAHO MOUNTAINS


CITY           SKY/WX    TMP DP  RH WIND       PRES   REMARKS
MCCALL         CLOUDY    45  41  86 SE6       30.03F
HAILEY         PTSUNNY   46  39  76 W7        30.14S
STANLEY          N/A     42  39  89 S6        30.13S
SALMON         CLOUDY   N/A N/A N/A MISG        N/A
CHALLIS        PTSUNNY   49  39  68 CALM      30.07R
$$

IDZ002-004-006-007-026-231700-
NORTHERN IDAHO


CITY           SKY/WX    TMP DP  RH WIND       PRES   REMARKS
LEWISTON       CLOUDY    56  49  77 CALM      29.81S
LOWELL           N/A     50  48  93 N3        29.91R
COEUR D`ALENE  CLOUDY    52  48  87 S7        29.80F
MULLAN PASS    LGT RAIN  39  39 100 VRB7G18   29.86S VSB 1/4 WCI  34
$$



USA.gov is the U.S. government's official web portal to all federal, state and local government web resources and services.